• In Latvia
  • List of Countries
  • For 7 days
  • Water Temperature
  • Satellite Maps
  • Weather Map
  • Weather Widgets
  • user-avatar
    Login

    Hourly Weather Liepaja

    Today, 20 August, Sunday

    Time Temperature Precipitation Wind Pressure Humidity
    00:00 +15°C° 0 mm 5 mps 761 mmHg 86%
    01:00 +15°C° 0 mm 4 mps 761 mmHg 86%
    02:00 +14°C° 0 mm 4 mps 761 mmHg 87%
    03:00 +14°C° 0 mm 4 mps 762 mmHg 88%
    04:00 +14°C° 0 mm 4 mps 762 mmHg 90%
    05:00 +15°C° 0 mm 5 mps 762 mmHg 85%
    06:00 +16°C° 0 mm 5 mps 762 mmHg 81%
    07:00 +17°C° 0 mm 5 mps 762 mmHg 76%
    08:00 +19°C° 0.1 mm 5 mps 762 mmHg 74%
    09:00 +19°C° 0.1 mm 5 mps 762 mmHg 71%
    10:00 +20°C° 0.1 mm 5 mps 762 mmHg 69%
    11:00 +20°C° 0.1 mm 5 mps 762 mmHg 68%
    12:00 +20°C° 0.1 mm 5 mps 762 mmHg 68%
    13:00 +20°C° 0.1 mm 5 mps 762 mmHg 67%
    14:00 +20°C° 0 mm 4 mps 762 mmHg 68%
    15:00 +20°C° 0 mm 4 mps 762 mmHg 69%
    16:00 +19°C° 0 mm 4 mps 762 mmHg 70%
    17:00 +18°C° 0 mm 4 mps 762 mmHg 75%
    18:00 +17°C° 0 mm 4 mps 762 mmHg 81%
    19:00 +16°C° 0 mm 3 mps 762 mmHg 86%
    20:00 +16°C° 0 mm 3 mps 762 mmHg 87%
    21:00 +15°C° 0 mm 4 mps 762 mmHg 89%
    22:00 +14°C° 0 mm 4 mps 761 mmHg 90%
    23:00 +14°C° 0 mm 4 mps 761 mmHg 90%

    Tomorrow, 21 August, Monday

    Time Temperature Precipitation Wind Pressure Humidity
    00:00 +14°C° 0 mm 4 mps 761 mmHg 90%
    01:00 +14°C° 0 mm 3 mps 761 mmHg 91%
    02:00 +13°C° 0 mm 3 mps 761 mmHg 91%
    03:00 +13°C° 0 mm 3 mps 760 mmHg 91%
    04:00 +13°C° 0 mm 3 mps 760 mmHg 91%
    05:00 +14°C° 0.1 mm 4 mps 760 mmHg 87%
    06:00 +15°C° 0.1 mm 4 mps 760 mmHg 83%
    07:00 +17°C° 0.1 mm 4 mps 760 mmHg 79%
    08:00 +18°C° 0.2 mm 4 mps 760 mmHg 74%
    09:00 +19°C° 0.2 mm 4 mps 760 mmHg 68%
    10:00 +20°C° 0.2 mm 4 mps 760 mmHg 63%
    11:00 +20°C° 0.2 mm 4 mps 760 mmHg 63%
    12:00 +20°C° 0.2 mm 3 mps 760 mmHg 63%
    13:00 +21°C° 0.2 mm 3 mps 760 mmHg 63%
    14:00 +20°C° 0.2 mm 3 mps 760 mmHg 65%
    15:00 +20°C° 0.2 mm 3 mps 760 mmHg 67%
    16:00 +20°C° 0.2 mm 2 mps 760 mmHg 69%
    17:00 +18°C° 0.1 mm 2 mps 760 mmHg 76%
    18:00 +18°C° 0.1 mm 1 mps 760 mmHg 82%
    19:00 +15°C° 0.1 mm 1 mps 760 mmHg 88%
    20:00 +15°C° 0 mm 1 mps 760 mmHg 89%
    21:00 +14°C° 0 mm 1 mps 760 mmHg 91%
    22:00 +14°C° 0 mm 1 mps 760 mmHg 92%
    23:00 +14°C° 0 mm 1 mps 760 mmHg 92%

    Day after tomorrow, 22 August, Tuesday

    Time Temperature Precipitation Wind Pressure Humidity
    00:00 +13°C° 0 mm 1 mps 760 mmHg 92%
    01:00 +13°C° 0 mm 1 mps 760 mmHg 92%
    02:00 +13°C° 0.1 mm 1 mps 760 mmHg 93%
    03:00 +13°C° 0.1 mm 1 mps 760 mmHg 93%
    04:00 +13°C° 0.1 mm 1 mps 760 mmHg 93%
    05:00 +14°C° 0.1 mm 1 mps 760 mmHg 90%
    06:00 +15°C° 0.1 mm 1 mps 760 mmHg 87%
    07:00 +18°C° 0.1 mm 1 mps 760 mmHg 84%
    08:00 +19°C° 0.4 mm 1 mps 760 mmHg 79%
    09:00 +19°C° 0.4 mm 2 mps 760 mmHg 75%
    10:00 +20°C° 0.4 mm 2 mps 760 mmHg 71%
    11:00 +20°C° 0.5 mm 3 mps 760 mmHg 71%
    12:00 +20°C° 0.5 mm 3 mps 760 mmHg 71%
    13:00 +20°C° 0.5 mm 4 mps 759 mmHg 72%
    14:00 +19°C° 0.1 mm 4 mps 759 mmHg 71%
    15:00 +19°C° 0.1 mm 4 mps 759 mmHg 70%
    16:00 +19°C° 0.1 mm 3 mps 759 mmHg 69%
    17:00 +18°C° 0 mm 3 mps 759 mmHg 75%
    18:00 +17°C° 0 mm 3 mps 759 mmHg 81%
    19:00 +14°C° 0 mm 3 mps 759 mmHg 87%
    20:00 +14°C° 0 mm 3 mps 759 mmHg 89%
    21:00 +13°C° 0 mm 3 mps 759 mmHg 92%
    22:00 +13°C° 0 mm 3 mps 759 mmHg 94%
    23:00 +13°C° 0.1 mm 3 mps 759 mmHg 94%

    23 August, Wednesday

    Time Temperature Precipitation Wind Pressure Humidity
    00:00 +12°C° 0.1 mm 4 mps 759 mmHg 95%
    01:00 +12°C° 0.1 mm 4 mps 759 mmHg 95%
    02:00 +12°C° 0.2 mm 4 mps 759 mmHg 95%
    03:00 +12°C° 0.2 mm 4 mps 759 mmHg 95%
    04:00 +12°C° 0.2 mm 4 mps 759 mmHg 94%
    05:00 +13°C° 0 mm 5 mps 759 mmHg 90%
    06:00 +14°C° 0 mm 5 mps 759 mmHg 85%
    07:00 +15°C° 0 mm 6 mps 759 mmHg 80%
    08:00 +16°C° 0 mm 6 mps 759 mmHg 76%
    09:00 +16°C° 0 mm 6 mps 759 mmHg 71%
    10:00 +17°C° 0 mm 7 mps 759 mmHg 66%
    11:00 +17°C° 0 mm 7 mps 760 mmHg 65%
    12:00 +17°C° 0 mm 7 mps 760 mmHg 64%
    13:00 +17°C° 0 mm 8 mps 760 mmHg 64%
    14:00 +17°C° 0 mm 7 mps 760 mmHg 65%
    15:00 +16°C° 0 mm 7 mps 760 mmHg 67%
    16:00 +16°C° 0 mm 7 mps 760 mmHg 69%
    17:00 +15°C° 0 mm 6 mps 760 mmHg 72%
    18:00 +14°C° 0 mm 6 mps 761 mmHg 74%
    19:00 +13°C° 0 mm 5 mps 761 mmHg 77%
    20:00 +13°C° 0 mm 5 mps 761 mmHg 78%
    21:00 +12°C° 0 mm 4 mps 761 mmHg 79%
    22:00 +12°C° 0 mm 4 mps 761 mmHg 79%
    23:00 +12°C° 0 mm 4 mps 761 mmHg 80%

    24 August, Thursday

    Time Temperature Precipitation Wind Pressure Humidity
    00:00 +12°C° 0 mm 4 mps 761 mmHg 81%
    01:00 +12°C° 0 mm 4 mps 761 mmHg 82%
    02:00 +12°C° 0 mm 4 mps 761 mmHg 82%
    03:00 +12°C° 0 mm 4 mps 761 mmHg 83%
    04:00 +12°C° 0 mm 4 mps 761 mmHg 83%
    05:00 +13°C° 0 mm 5 mps 761 mmHg 79%
    06:00 +15°C° 0 mm 5 mps 761 mmHg 75%
    07:00 +16°C° 0 mm 6 mps 761 mmHg 71%
    08:00 +17°C° 0 mm 6 mps 761 mmHg 68%
    09:00 +18°C° 0 mm 7 mps 761 mmHg 65%
    10:00 +20°C° 0 mm 7 mps 761 mmHg 62%
    11:00 +18°C° 0.1 mm 7 mps 760 mmHg 64%
    12:00 +18°C° 0.1 mm 7 mps 760 mmHg 67%
    13:00 +18°C° 0.1 mm 7 mps 760 mmHg 69%
    14:00 +18°C° 0 mm 7 mps 760 mmHg 67%
    15:00 +18°C° 0 mm 7 mps 759 mmHg 64%
    16:00 +19°C° 0 mm 6 mps 759 mmHg 61%
    17:00 +17°C° 0 mm 6 mps 758 mmHg 64%
    18:00 +17°C° 0 mm 6 mps 758 mmHg 67%
    19:00 +17°C° 0 mm 6 mps 757 mmHg 70%
    20:00 +17°C° 0.4 mm 6 mps 757 mmHg 72%
    21:00 +17°C° 0.4 mm 6 mps 757 mmHg 75%
    22:00 +17°C° 0.4 mm 6 mps 756 mmHg 77%
    23:00 +17°C° 0.3 mm 6 mps 756 mmHg 82%

    25 August, Friday

    Time Temperature Precipitation Wind Pressure Humidity
    00:00 +17°C° 0.3 mm 6 mps 756 mmHg 86%
    01:00 +17°C° 0.3 mm 6 mps 755 mmHg 90%
    02:00 +17°C° 0.1 mm 6 mps 755 mmHg 92%
    03:00 +17°C° 0.1 mm 5 mps 755 mmHg 94%
    04:00 +17°C° 0.1 mm 5 mps 755 mmHg 95%
    05:00 +17°C° 0.1 mm 5 mps 755 mmHg 95%
    06:00 +19°C° 0.1 mm 6 mps 755 mmHg 94%
    07:00 +19°C° 0.1 mm 6 mps 755 mmHg 94%
    08:00 +18°C° 0.1 mm 7 mps 755 mmHg 91%
    09:00 +18°C° 0.1 mm 7 mps 756 mmHg 88%
    10:00 +18°C° 0.1 mm 7 mps 756 mmHg 86%
    11:00 +18°C° 0.1 mm 8 mps 756 mmHg 83%
    12:00 +20°C° 0.1 mm 8 mps 757 mmHg 80%
    13:00 +20°C° 0.1 mm 8 mps 757 mmHg 78%
    14:00 +20°C° 0.1 mm 8 mps 757 mmHg 79%
    15:00 +20°C° 0.1 mm 7 mps 758 mmHg 81%
    16:00 +18°C° 0.1 mm 7 mps 758 mmHg 82%
    17:00 +18°C° 0.1 mm 7 mps 758 mmHg 85%
    18:00 +17°C° 0.1 mm 6 mps 758 mmHg 88%
    19:00 +16°C° 0.1 mm 5 mps 759 mmHg 91%
    20:00 +16°C° 0.1 mm 5 mps 759 mmHg 91%
    21:00 +16°C° 0.1 mm 5 mps 759 mmHg 91%
    22:00 +15°C° 0.1 mm 5 mps 759 mmHg 91%
    23:00 +15°C° 0 mm 5 mps 760 mmHg 90%
    Show more